TIMESTAMP,CO2_1_1_1,H2O_1_1_1,TAU_1_1_1,TAU_SSITC_TEST_1_1_1,H_1_1_1,H_SSITC_TEST_1_1_1,LE_1_1_1,LE_SSITC_TEST_1_1_1,FC_1_1_1,FC_SSITC_TEST_1_1_1,WD_0_0_1,WS_0_0_1,WS_MAX_0_0_1,U_SIGMA_0_0_1,V_SIGMA_0_0_1,W_SIGMA_0_0_1,USTAR_0_0_1,MO_LENGTH_0_0_1,ZL_0_0_1,FETCH_MAX_0_0_1,FETCH_70_0_0_1,FETCH_80_0_0_1,FETCH_90_0_0_1,PA_0_0_1,RH_0_0_1,TA_0_0_1,VPD_0_0_1,T_SONIC_0_0_1,T_SONIC_SIGMA_0_0_1
[yyyymmddHHMMSS],[mmolCO2 mol-1],[mmolH2O mol-1],[kg m-1 s-2],[#],[W m-2],[#],[W m-2],[#],[umolCO2 m-2 s-1],[#],[Decimal degrees],[m s-1],[m s-1],[m s-1],[m s-1],[m s-1],[m s-1],[m],[#],[m],[m],[m],[m],[kPa],[%],[deg C],[hPa],[deg C],[deg C]
20240210003000,425.03090928481447,4.3576450258589938,1.0798833228461240,0,-1.6027457167617194,2,11.406503179799451,0,3.2317793916782018,0,233.02442834557291,4.9499412313774522,12.092617932608070,1.9453015800827151,1.4955574552299336,1.1013913547520580,0.94857209117129537,44122.177913853164,4.3062244200856904E-004,111.11120138621240,203.14671323411861,243.11473134671894,304.35079460259129,93.209020285590270,83.290000000000006,-3.0260000000000105,0.81509806083052472,-2.7981263936359824,0.17320479919797541
20240210010000,424.84806256716934,4.2491334428560181,0.96991833614041401,0,-0.22152415919863150,2,7.9567231117585635,0,2.5477349237013489,0,237.73563315112963,4.4952313366438856,10.396405396780750,1.9264728974238108,1.3644815702415407,0.98414235250726478,0.89841580823587730,271280.62425068102,7.0038175606831251E-005,116.41004850532774,212.83469574847143,254.70877207113969,318.86515779064445,93.240878616086306,82.680000000000007,-3.2610000000000241,0.83017686495504450,-3.0149617060600349,4.9728819707307796E-002
20240210013000,424.93331333505034,4.2280278696190914,0.73519719989457888,0,31.543580749057373,1,-11.009292046375439,2,1.4970398694581792,0,237.33245837095987,3.7398732996891573,9.5909907985431904,1.6025335845808537,1.2473980044962003,0.92943206780084353,0.78181928642889931,-1255.7231527060089,-1.5130723646415316E-002,109.03498832648806,199.35073358674987,238.57191321554836,298.66372537277562,93.265064511501748,83.423333333333332,-3.4440000000000168,0.78375979458403155,-3.2028232379489623,0.13021571375065127
20240210020000,425.08285476621086,4.3296665774123504,0.71990165598370437,0,3.4640520143340940,1,1.3918768793294831,2,1.4093813938357374,0,235.14089914450813,3.3624794866989136,8.5907331584032889,1.5166825101285630,1.1050566399158277,0.84574291600068396,0.77318873735707239,-11062.180702281637,-1.7175636984560507E-003,116.54472466149116,213.08092671469510,255.00344764944316,319.23405664720423,93.288222969184034,87.133333333333326,-3.7046666666666965,0.59659481444245843,-3.4368976838853200,5.7529396581768144E-002
20240210023000,425.09240259980425,4.3147203336807056,0.85910747248366726,0,11.270124457551406,1,3.8604978310080087,1,2.2033461712653697,0,237.84222375993991,3.9403854458668226,10.700754782985918,1.8097733229290229,1.2244750359909127,0.97132391217787217,0.84459509163760282,-4432.2448387372524,-4.2867667945467348E-003,111.96504991773055,204.70782067075564,244.98297823597076,306.68961801369380,93.300023137586805,86.806666666666672,-3.6990000000000123,0.61200128978582768,-3.4410738313463298,7.5980992109447060E-002
20240210030000,425.09229976638909,4.3128976020766281,0.96868867463004027,0,10.172043589162495,0,-1.7629158045707571,1,2.1414906419606070,0,239.94175824188233,4.1847183655716087,9.9589381335577567,1.7324945659664845,1.3264353564311018,0.98075128943938350,0.89658304215690365,-5875.4412696661793,-3.2337996633705623E-003,116.54139329038004,213.07483590581768,254.99615850683116,319.22493150561513,93.321368155109184,87.409999999999997,-3.7939999999999827,0.57987092492293069,-3.5330737375567765,7.0944148683732028E-002
20240210033000,425.06920097038216,4.2531700522800948,0.92750723388822676,0,13.823272615145276,0,0.62655075368751711,2,2.6106705125487726,0,242.34586985201742,3.8301512740575547,10.434602075082273,1.7419309749039820,1.4721126406108000,1.0525353471893353,0.87681274664273001,-4044.4583257046706,-4.6977860741560760E-003,108.19097432571756,197.80760680888224,236.72518458251918,296.35184026501463,93.345104341362855,87.760000000000005,-4.0296666666666852,0.55386710848807807,-3.7661343061658954,0.10395290184345776
20240210040000,424.99129269325522,4.2117183407686962,0.84164108203410415,0,8.9687193058282126,1,-0.57466295391977229,2,2.2698185694677639,0,243.98204432321322,4.1014025253803013,10.888343712136285,1.6937572198779240,1.4051534830521968,1.0211427705908322,0.83478356510567708,-5379.9963686345263,-3.5316008967534503E-003,106.57242263771403,194.84837811262719,233.18374363065683,291.91837643595403,93.358404274088556,88.579999999999998,-4.2816666666666947,0.50706034450288540,-4.0150792643228783,8.2438873377128227E-002
20240210043000,424.89645428038392,4.1658153667288369,0.83127461246201484,0,20.313946254993894,0,1.2775217624632902,1,2.9352184657605420,0,249.01826627294233,4.0572172285560821,10.351665439473452,1.6775800342552620,1.4315635638217874,1.0528080292191915,0.82916223250146381,-2327.7718923380608,-8.1623118066418525E-003,103.43967773427957,189.12072129140759,226.32920127962095,283.33730280204219,93.367415333767369,89.426666666666662,-4.5520000000000209,0.45999881660835912,-4.2857219857110067,9.8358332455850711E-002
20240210050000,424.81229600389503,4.1615268744384046,0.60556714913840681,0,13.754252106498976,0,-1.6015603714924551,1,1.5514445859899459,0,241.04829224598234,3.5055288797427027,9.5522055984301151,1.5574269115626800,1.3354130490604617,0.89541831898888791,0.70738970751456753,-2134.7943404678363,-8.9001547548773173E-003,103.69578625423948,189.58896934751729,226.88957461056202,284.03882371606198,93.368020594401045,90.916666666666671,-4.7843333333333362,0.38830151236753296,-4.4907005708482188,6.1664761171669316E-002
20240210053000,424.83471828615473,4.1316891905721329,0.51427070234442884,0,11.350892077911869,0,5.8567289317570079,1,1.6535049315064640,0,247.22720821579892,4.0765503515110284,9.4592962713475242,1.4839226400901813,1.3057004794583791,0.87249220292782370,0.65173849751084156,-2023.3580735404819,-9.3903299907532965E-003,99.152656934276095,181.28267999384425,216.94906771011773,271.59448866016578,93.388551000434035,90.706666666666663,-4.8460000000000036,0.39543041212599067,-4.5614912779066117,5.7132320332260823E-002
20240210060000,424.56983917689041,3.8742428247977485,0.66790126577688425,0,30.086647752738564,0,11.909360546342231,1,2.2710995145973061,0,266.87585372660664,3.8805112945590317,10.922872653158953,1.6819869387472870,1.4240974221402509,0.89296456988103801,0.74196114563958160,-1126.5519729896976,-1.6865622230971634E-002,107.96735152496707,197.39875300827609,236.23589100591133,295.73930276878957,93.424365691840293,87.903333333333336,-5.2756666666666661,0.49822308205704136,-5.0206229332817429,0.19492974490350856
20240210063000,424.17562594940557,3.2922971330057975,0.95588336622951953,0,6.3446984491052323,0,2.4439173586281862,1,2.3696114551471914,0,257.52961200589721,4.2322271361983885,12.791916311186579,1.9028826628533779,1.5153837489970661,1.0491368877606937,0.88667280512564517,-9117.7857078908855,-2.0838392794817126E-003,109.44599778636552,200.10218996414980,239.47121457465929,299.78954395940110,93.445794361450808,77.328000000000003,-5.7273333333333198,0.90225296601516336,-5.5163769571962575,0.15420405753833447
20240210070000,424.13514338679931,3.2079797218619341,0.61650820269462270,0,5.3250923629986717,0,2.8946150661067498,1,1.4332568924432931,0,268.09122519091437,3.6083217267902068,9.5606403943634160,1.5065606735396482,1.2267790929605940,0.87516898800682297,0.71171575399824494,-5618.7585242236855,-3.3815299088022529E-003,106.12718070631067,194.03433385939113,232.20954056933655,290.69878980632177,93.459177970052082,76.684333333333328,-5.9560000000000173,0.91182446801598016,-5.7489423319498201,5.3473283299976672E-002
20240210073000,424.22302039467883,3.2943147663807371,0.66244536919811658,0,10.493589340459636,0,5.4707974246875315,1,1.8563783452735969,0,260.99722028237915,3.5509558023289696,8.5794138960819755,1.4418056635437688,1.2196122458570200,0.94431007388933275,0.73751129495070356,-3173.2192203750797,-5.9876102722440242E-003,102.74912740411467,187.85817504813440,224.81825588523284,281.44577846357129,93.478750756944450,79.546666666666667,-6.0853333333333239,0.79202079185197538,-5.8759569761488137,5.9922937840106494E-002
20240210080000,424.33536418613056,3.3613672994208903,0.61471409904308583,0,12.264738227962155,1,-0.22680646030177470,2,1.3294153140218701,0,256.54498837817073,3.1719859321291608,8.8216641355611838,1.4522642540160904,1.2091036979288570,0.88623383904005271,0.71018104767238321,-2424.8570672863698,-7.8355133819341706E-003,104.88454523283499,191.76239989562038,229.49061587473392,287.29501872802058,93.513393425347232,81.856666666666669,-6.1913333333333185,0.69689811714826078,-5.9731424475775725,6.8959246016546405E-002
20240210083000,424.36477253072576,3.2906360653308178,0.64867382752167391,0,22.334363537826171,1,13.034880377098149,1,1.4818075236425479,0,245.70415445325978,3.0337606068908745,8.6669851758543928,1.4960681962469162,1.1368801769583063,0.83801391884655330,0.72918048613201958,-1441.6673582505177,-1.3179184429240841E-002,112.02680354456085,204.82072599591052,245.11809707375878,306.85877076481984,93.544140336211086,81.173333333333332,-6.3553333333333057,0.71412292259667598,-6.1451177362735052,0.11917900089550477
20240210090000,424.19514635951168,3.1711862533546533,0.74308215791925136,0,17.129719074595645,1,12.233333787776862,1,2.1885694000404503,0,250.64356712246365,3.2725542034937809,9.0325770186712493,1.4752728159114377,1.2326170222025190,0.88912330191837530,0.77992654553993457,-2300.2248273029932,-8.2600621358727977E-003,112.75304202277172,206.14852155596282,246.70712923542342,308.84805046980813,93.554836797743064,80.114333333333335,-6.6646666666666761,0.73660456698996146,-6.4536330379910396,9.2960492255011684E-002
20240210093000,423.85171276428406,3.0493243353740951,0.74425606412956702,0,13.249303435993765,0,6.2326957362306068,0,1.6949644074979282,0,256.91404882637863,3.7227752403781551,9.8846640574637501,1.5981038911784611,1.2716895669259178,0.89741473822373508,0.78009131577553026,-2976.0708563580938,-6.3842565977245795E-003,111.93778173275228,204.65796573187382,244.92331460725831,306.61492623048957,93.569930467230904,78.559666666666672,-6.9173333333333176,0.77891184227731802,-6.7050363837347504,7.7987251200103760E-002
20240210100000,424.24945584952729,3.1228458030958888,0.61488780012317090,0,9.3724831780530593,0,5.3375006813116883,1,1.0584957157392747,0,249.65936478710267,3.3438039612502060,9.0913348908456761,1.4781107431841305,1.1568283263190122,0.84422053465029123,0.70878027329935067,-3156.0717981262928,-6.0201418774059523E-003,108.86780530349336,199.04506970042513,238.20611161126351,298.20578517180843,93.588730256076389,81.486666666666665,-7.0803333333333285,0.66418435726838365,-6.8455142627291821,5.6750416223873272E-002
20240210103000,424.13974284692443,3.0416552433051871,1.2276699234436494,0,8.7317943860475928,0,-1.8528254974494121,2,2.9504701510599061,0,255.82003317116875,4.5869579985650715,11.599474399629170,2.0439398952002401,1.5606331742411272,1.1038335068505130,1.0011530156255481,-9548.5279201589747,-1.9898355179846054E-003,115.80635951267307,211.73095973316964,253.38788195893520,317.21156011268715,93.612252898150459,80.087000000000003,-7.1940000000000168,0.70816397823689048,-6.9809772070143481,0.10866581426933337
20240210110000,423.56953205994324,2.9696512893467024,1.1429043569989805,0,25.294260532869732,1,9.4734843504678032,1,3.0679334730985186,0,258.02420027207341,3.7994700783288766,10.772525326428088,1.9038406543862993,1.4168412531058321,1.0621174241175426,0.96524382573553824,-2955.0044784717038,-6.4297702891559045E-003,115.99158922310411,212.06961871982372,253.79317027124804,317.71893298644216,93.653490179253467,79.915333333333336,-7.4706666666666592,0.69916618343742698,-7.2467753728230946,0.11657021313938028
20240210113000,423.00120718883238,2.8135775115015509,1.1866820853291133,0,11.913699678042915,0,3.3763822633140665,1,2.7056087943140885,0,260.88864982263971,4.0137806875065367,12.533424333341911,1.9410064637161311,1.5644723018097213,1.0965111816685504,0.98283339523104818,-6624.6209693716473,-2.8680886178763781E-003,114.71715603149974,209.73954838595168,251.00467118987024,314.22806303189554,93.686953336371531,77.402333333333331,-7.7506666666666888,0.76977539402160122,-7.5301719309488817,9.9005006921166760E-002
20240210120000,423.01349940900025,2.8116228248733575,0.94801735495306161,0,17.604740816786414,0,6.8719564435165470,1,1.8550680011212506,0,258.60043863584349,3.9827159113757835,11.796076216533729,1.8387781301767092,1.3630909334402113,0.99153191735468715,0.87786506587937940,-3195.3701124062163,-5.9461030589950626E-003,113.59304836725407,207.68432105995927,248.54508899304068,311.14895798610598,93.717391983733393,79.022333333333336,-8.0223333333333358,0.69968258566549080,-7.8004475836846723,0.13509176961266373
20240210123000,423.24494803002472,2.9475611882180615,0.75106398780071371,0,3.5876960896247199,1,2.3727283586646921,1,1.5871162697160439,0,256.69615339776135,3.8030302434965457,10.008147842501193,1.7322532176662822,1.1994532593830962,0.88634116525411644,0.78073348550734101,-11032.773713131421,-1.7221417291814688E-003,113.12964099488873,206.83706458707442,247.53113938732008,309.87961339938101,93.752583040798612,85.146666666666675,-8.3700000000000045,0.48219069719098739,-8.1331570553250003,9.8925054750966343E-002
20240210130000,423.31823546622371,2.9652818196410569,0.89121181839443375,0,0.18389950215400117,2,10.217458890991788,1,1.6926741999791284,0,259.31508825868843,3.4641255512926739,9.1701524420295080,1.7727932894398095,1.1014813100064400,0.88623648301407831,0.85034819252280935,-278161.43330028350,-6.8305658964191987E-005,121.14141291436989,221.48513887948295,265.06114314495699,331.82509791802289,93.780977618923615,85.633333333333326,-8.3623333333333107,0.46667052947824117,-8.1202678519354663,4.2618267265844202E-002
20240210133000,423.38243242300547,2.9681895266360576,0.75734599053134288,0,-1.1241805490723775,2,5.1724553494067402,0,1.4449796118360418,0,257.58472467692866,3.2549589302738955,9.6043434791343820,1.5330683964636367,1.1336657566511397,0.84663829716220917,0.78387455632582181,35650.125819741384,5.3295744581856937E-004,117.73181151971660,215.25130009346626,257.60083026273668,322.48567146241436,93.802133704644106,85.396666666666661,-8.3113333333333230,0.47624661778743249,-8.0646630816989386,4.2273021228390315E-002
20240210140000,423.33526466264971,2.9613218710159344,0.85782050480997474,0,7.9007620977441544,0,6.5103812545503494,0,2.0177945632213063,0,268.41887408162364,3.3447976152094783,9.8051036764836201,1.5905155637221775,1.2825920146614007,0.96441577141744494,0.83428302334223570,-6117.0639886709168,-3.1060652684341493E-003,111.50495883601076,203.86662743484752,243.97628477633901,305.42935726082646,93.836741082465281,84.453333333333333,-8.1936666666666724,0.51167653521907708,-7.9445869522094767,5.9356066452173867E-002
20240210143000,423.36031039082161,2.9805912604899696,0.80163259471556869,0,11.030254066511539,0,6.0447579889391774,1,1.7616044993232405,0,268.58916100315327,3.8676098600715134,10.264601309604485,1.6136282293522912,1.2210261335603896,0.94831717099109991,0.80661859788318024,-3960.4278173381776,-4.7974615057546962E-003,110.00858872999306,201.13078563827952,240.70218088959177,301.33056771391983,93.851675135633684,84.226666666666674,-8.0736666666666679,0.52400423788905581,-7.8253143734401647,7.0672159679545182E-002
20240210150000,423.40650880710149,3.0043898563104543,1.0230439695360232,0,29.272864595081085,0,4.0814144523499456,0,2.1129630085304441,0,267.48128396199417,3.6898244638564752,11.372848845658677,1.7903373442128381,1.5199072403606368,1.0320586042325475,0.91125755637421069,-2152.3293978359447,-8.8276450710116725E-003,113.34551153061568,207.23174477475945,248.00347076925257,310.47091624067974,93.889666100694456,84.136666666666670,-7.9523333333333426,0.53198539425994573,-7.7082667388915524,7.0399944899567024E-002
20240210153000,423.25091291374770,2.9664970376307416,0.92673217614955450,0,26.472931133258317,0,8.6861895931919264,1,2.1565162959538737,0,266.39874849876924,3.6949817289093660,9.4495681667033722,1.7432063481237972,1.3505223757701461,0.99081418235263219,0.86733032449079894,-2052.7339001009473,-9.2559488587710455E-003,112.56639376495679,205.80726901226848,246.29873709773707,308.33679197499885,93.929837569661458,82.253333333333330,-7.8186666666666724,0.60134991623834821,-7.5814057727389468,9.4814532699492388E-002
20240210160000,423.21936187097583,2.9529494837220551,1.0201497649146043,0,30.556196130059146,0,9.2297219375100994,0,1.7254211682165979,0,263.53065808134403,3.9435999928466834,10.790812574168827,1.8914499765504549,1.3493899116491928,1.0107552724787270,0.90998175310388563,-2054.3869533211900,-9.2485011011601143E-003,115.12356627265964,210.48259592469032,251.89390931675098,315.34128364591544,93.961044485677078,81.390000000000001,-7.7373333333333107,0.63459355532939077,-7.4972480307685032,8.9745517776327680E-002
20240210163000,423.15889064013840,2.9594585279804226,0.63501294557754817,0,38.263927741481027,0,6.8516997327509603,0,1.2158702987636956,0,265.69879600357370,3.6141719927349047,9.0989865603507933,1.4841531348232910,1.1517731740393020,0.87027049769879472,0.71805041790629698,-806.28405397752215,-2.3564896150767341E-002,107.36319876963252,196.29416908688594,234.91398616667732,294.08443477300324,93.999877039836505,80.435999999999993,-7.5513333333333321,0.67680445992902549,-7.3238212819879891,0.10568162835844080
20240210170000,423.25005373141033,2.9723566657274021,0.69880958338227306,0,38.153798772708178,0,6.6782469885305495,0,1.5587110687732006,0,258.07527205463964,4.4186342502556446,9.4212407945553185,1.6107530621997546,1.3945068688715856,0.96851733487043745,0.75332333101163107,-933.97401257357092,-2.0343178444168258E-002,102.41277066230585,187.24320764862716,224.08229697288812,280.52444523737717,94.034459003472222,79.925333333333327,-7.4080000000000155,0.70221211378066983,-7.1992718471950639,0.11070533192974910
20240210173000,423.22900233623744,2.9355386517256599,0.78847415492321093,0,50.818406043650512,0,9.3812521163952329,0,1.3707818857972558,0,263.49581403271338,3.8965774390889294,8.7578322939166515,1.5000426587149898,1.3620956326446136,0.94651129025342706,0.80011657494272759,-840.34862827759423,-2.2609663847423675E-002,109.46540156986964,200.13766626891467,239.51367065068817,299.84269392856800,94.063214640407992,78.758333333333340,-7.3750000000000000,0.74493121233041337,-7.1756804690890590,0.14122419494021868
20240210180000,423.09853861075794,2.8694088362676275,0.77176536440408749,0,88.462149487540358,0,13.303432706944255,0,1.3312729324953660,0,266.57413919961442,3.5470276446941131,9.0643872808929729,1.6212140054473416,1.2826176693527389,0.92675309098461189,0.79191329832067203,-468.03452253256830,-4.0595296041816831E-002,110.41441454988244,201.87276466854402,241.59014028472984,302.44218750753771,94.058796042534723,75.748333333333335,-7.1659999999999968,0.86432452225349610,-6.9838541853162610,0.18956467499395027
20240210183000,423.06581152604969,2.9001848182438432,0.74495687007445632,0,130.52960933582347,0,19.531650872390284,1,0.30023099668737963,2,272.59239035627485,3.0942776863229668,8.5907005164819132,1.5804825478882800,1.3515589319341959,0.89845393767150883,0.77861181926530187,-301.46408275737224,-6.3025750285787108E-002,111.66447805257525,204.15827943877213,244.32531773607559,305.86630510865893,94.051374032118048,74.411666666666662,-6.7973333333333130,0.93822773362835110,-6.6264893425834543,0.28442518483366042
20240210190000,423.24658149574680,2.9436976743487362,0.71067331364242903,0,103.15632883361681,0,10.440059864135986,0,0.95668554984632526,0,259.69996031004501,2.8636323902986089,7.3220086401446238,1.3068932525706476,1.1751475728191945,0.90494424876898727,0.76092136797941579,-356.04231993812112,-5.3364442753047255E-002,109.00069432878213,199.28803322143384,238.49687689216182,298.56978880002970,94.049033906250003,73.834333333333333,-6.5023333333333539,0.98138060173156927,-6.3365531667073469,0.21245067943360435
20240210193000,423.12421853175596,2.9004821717837030,0.79983913192869616,0,102.58432152088136,0,16.497337505358054,0,1.2130028558228443,0,262.22296615987176,3.2225387976225224,8.4575927689512227,1.6839770078596703,1.2667899979099062,0.84243236549451783,0.80747615991948940,-427.85000788884486,-4.4408086127548201E-002,121.04047854627862,221.30059866324649,264.84029563835082,331.54862304647042,94.051315456814237,71.850666666666669,-6.3396666666666874,1.0690274712257719,-6.1953066219753055,0.25005365486132558
20240210200000,422.93941451395978,2.9202021539217848,0.71762560510795759,0,88.285163843328988,0,11.144475830969153,0,1.0733746772732975,0,256.67917070906327,3.5426975075872114,9.0966333926966829,1.5690884520337076,1.4929790375181027,0.95810294100658178,0.76526002665215731,-423.23793873757688,-4.4892005798612258E-002,104.60980294896250,191.26008337614425,228.88947129435016,286.54245704779106,94.069218087673605,70.529666666666671,-6.0059999999999718,1.1481275736474106,-5.8575741704304960,0.21582318632479067
20240210203000,422.78299716850842,2.9605843268530774,0.76289460232696826,0,76.182480403932544,0,8.7198398467446889,0,1.0605348923142881,0,255.78654931112510,2.9116569636407319,10.077299037332708,1.6525991072387434,1.1623304349481214,0.87437172708231048,0.78941933361298722,-538.57723473960482,-3.5278134266455312E-002,115.38363631287528,210.95808690328960,252.46295057604385,316.05365577765787,94.108712421045496,69.527000000000001,-5.6326666666666938,1.2214774888995072,-5.4915724989557475,0.20584521409641382
20240210210000,422.82447892599100,2.9880649754724433,0.80783546304391751,0,64.264128600670759,0,11.129070498963040,1,1.3207888823939533,0,258.43170478041122,3.5282331405932243,9.7183573998192525,1.5800609411632680,1.3676244474898744,0.98883513056157024,0.81244679954662813,-696.18923814393315,-2.7291430201728941E-002,107.00196069736135,195.63371067980026,234.12358613682659,293.09494772790970,94.147751343967016,69.248333333333335,-5.4530000000000314,1.2496137667366838,-5.2848447358873045,0.14728125521137769
20240210213000,423.56921396604400,3.0625594335850765,0.82136605722600431,0,55.116571101658067,0,2.1420309716724866,1,1.5197533494116040,1,263.09413051151029,4.6830603712418375,11.551817960729844,1.8437170454758178,1.5733218986436055,1.0855058667951525,0.81866717803740674,-830.83055530485956,-2.2868682282668654E-002,99.916005450297760,182.67832453865418,218.61929777766474,273.68541850802478,94.195524305989593,72.290333333333336,-5.6876666666666438,1.1060693219322486,-5.5286472252739713,0.15221068223886322
20240210220000,423.55325163581784,3.1549067507395923,0.64897722053361961,0,21.524701978012232,0,4.1986191616623225,0,1.4410496062032254,0,273.16657266130341,3.1393038035900283,8.6977535533647501,1.5133606316420705,1.1400865820909629,0.83860213543111239,0.72756594139942932,-1493.8520224309577,-1.2718796584069381E-002,111.76556483684216,204.34309832038829,244.54649873396912,306.14319747172965,94.240698802517372,74.400000000000006,-5.6689999999999827,1.0233131009188821,-5.4634364166259388,0.10879224299451615
20240210223000,423.68103161739043,3.2428331375432524,0.60676541547458085,0,1.7367365585514307,2,-0.24990484424145706,2,0.67872076452949670,1,264.14660700995557,2.9051414227684935,7.4612278680282085,1.4053251096340718,1.0551699655403060,0.76764735707928722,0.70379407989602927,-16761.049833385583,-1.1335805447075728E-003,116.81052613414212,213.56689657973280,255.58502945945790,319.96212806033452,94.259978348939811,74.964333333333329,-5.4043333333333408,1.0211108589526889,-5.1875693226168096,9.4322644329463648E-002